Simultaneous Nadir Overpasses (SNOs) Predictions

Prediction of SNOs between NOAA-19 and TERRA Satellite Orbit:

Table of predicted SNOs for the next 14.0 days since TLE Epoch: 11/2/2013
Index Date (NOAA-19) Time (NOAA-19) Lat,Lon (NOAA-19) SZA (NOAA-19 ) Date (TERRA) Time (TERRA) Lat,Lon (TERRA) SZA (TERRA ) Distance(km) Time Diff (sec)
1 11/04/2013 00:32:46 70.33, 171.55 85.63 11/04/2013 00:33:56 70.23, 172.54 85.56 38.56 70
2 11/04/2013 01:23:40 -69.81, -20.39 94.88 11/04/2013 01:23:32 -69.80, -20.44 94.89 2.36 8
3 11/04/2013 02:14:21 68.79, 148.34 84.17 11/04/2013 02:13:15 68.80, 145.89 84.10 98.47 66
4 11/06/2013 05:17:02 70.60, 100.09 86.55 11/06/2013 05:18:10 70.49, 101.84 86.49 65.92 68
5 11/06/2013 06:07:52 -69.84, -91.47 94.18 11/06/2013 06:07:50 -69.84, -91.47 94.18 0.06 2
6 11/06/2013 06:58:37 69.06, 76.93 85.10 11/06/2013 06:57:28 69.12, 75.22 85.09 68.23 69
7 11/08/2013 10:01:18 70.88, 28.59 87.47 11/08/2013 10:02:24 70.73, 31.12 87.38 93.79 66
8 11/08/2013 10:52:03 -69.83,-162.49 93.54 11/08/2013 10:52:08 -69.86,-162.52 93.52 2.80 5
9 11/08/2013 11:42:52 69.29, 5.57 85.96 11/08/2013 11:41:42 69.36, 4.45 85.98 44.40 70
10 11/10/2013 15:36:14 -69.84, 126.47 92.91 11/10/2013 15:36:26 -69.85, 126.41 92.90 2.74 12
11 11/10/2013 16:27:08 69.59, -65.89 86.86 11/10/2013 16:25:55 69.63, -66.26 86.88 14.81 73
12 11/12/2013 20:20:25 -69.87, 55.41 92.29 11/12/2013 20:20:43 -69.88, 55.38 92.27 2.32 18
13 11/12/2013 21:11:21 69.74,-137.14
